Gilford, NH

10:14 AM EST on December 07, 2016 (GMT -0500)
Laconia Municipal

Weather History for KLCI - April, 2013

Change the Weather History Date:

Tuesday, April 2, 2013

  Actual Average Record
Temperature  
Mean Temperature 30 °F -  
Max Temperature 35 °F 48 °F 76 °F (1986)
Min Temperature 26 °F 29 °F 20 °F (1995)
Degree Days  
Heating Degree Days 34    
Moisture  
Dew Point 8 °F    
Average Humidity 39    
Maximum Humidity 48    
Minimum Humidity 32    
Precipitation  
Precipitation 0.00 in - - ()
Sea Level Pressure  
Sea Level Pressure 29.77 in    
Wind  
Wind Speed 15 mph (WSW)    
Max Wind Speed 26 mph    
Max Gust Speed 34 mph    
Visibility 10 miles    
Events      
Averages and records for this station are not official NWS values.
T = Trace of Precipitation, MM = Missing Value Source: NWS Daily Summary

Daily Weather History Graph

Daily Weather History Graph

Search for Another Location

Airport or City:

Trip Planner

Search our weather history database for the weather conditions in past years. The results will help you decide how hot, cold, wet, or windy it might be!

Date:

Astronomy

Apr. 02, 2013 Rise Set
Actual Time 6:25 AM EDT 7:13 PM EDT
Civil Twilight 5:56 AM EDT 7:42 PM EDT
Nautical Twilight 5:21 AM EDT 8:17 PM EDT
Astronomical Twilight 4:45 AM EDT 8:53 PM EDT
Moon 1:23 AM EDT (4/2) 11:05 AM EDT (4/2)
Length of Visible Light 13h 46m
Length of Day
12h 48m
Waning Gibbous, 56% of the Moon is Illuminated
Apr 2
Waning Gibbous
Apr 3
Last Quarter
Apr 10
New
Apr 18
First Quarter
Apr 25
Full

Hourly Weather History & Observations

Time (EDT) Temp. Windchill Dew Point Humidity Pressure Visibility Wind Dir Wind Speed Gust Speed Precip Events Conditions
12:15 AM 30.2 °F 21.9 °F 10.4 °F 44% 29.73 in 10.0 mi West 9.2 mph 20.7 mph N/A   Clear
12:35 AM 30.2 °F 21.3 °F 8.6 °F 40% 29.73 in 10.0 mi West 10.4 mph 18.4 mph N/A   Clear
12:55 AM 30.2 °F 19.3 °F 8.6 °F 40% 29.73 in 10.0 mi WSW 15.0 mph 24.2 mph N/A   Clear
1:15 AM 30.2 °F 18.9 °F 8.6 °F 40% 29.74 in 10.0 mi West 16.1 mph 23.0 mph N/A   Clear
1:35 AM 30.2 °F 19.3 °F 8.6 °F 40% 29.74 in 10.0 mi WSW 15.0 mph 20.7 mph N/A   Clear
1:55 AM 28.4 °F 16.6 °F 8.6 °F 43% 29.75 in 10.0 mi WSW 16.1 mph 21.9 mph N/A   Clear
2:15 AM 28.4 °F 17.5 °F 6.8 °F 40% 29.75 in 10.0 mi West 13.8 mph 21.9 mph N/A   Clear
2:35 AM 28.4 °F 17.5 °F 6.8 °F 40% 29.75 in 10.0 mi West 13.8 mph 21.9 mph N/A   Clear
2:55 AM 28.4 °F 18.5 °F 6.8 °F 40% 29.75 in 10.0 mi West 11.5 mph 17.3 mph N/A   Clear
3:15 AM 28.4 °F 17.0 °F 6.8 °F 40% 29.75 in 10.0 mi West 15.0 mph 20.7 mph N/A   Clear
3:35 AM 28.4 °F 19.7 °F 6.8 °F 40% 29.75 in 10.0 mi West 9.2 mph 19.6 mph N/A   Clear
3:55 AM 28.4 °F 17.5 °F 6.8 °F 40% 29.74 in 10.0 mi West 13.8 mph - N/A   Clear
4:15 AM 28.4 °F 18.0 °F 6.8 °F 40% 29.75 in 10.0 mi WSW 12.7 mph 21.9 mph N/A   Clear
4:35 AM 26.6 °F 16.2 °F 6.8 °F 43% 29.75 in 10.0 mi WSW 11.5 mph - N/A   Clear
4:55 AM 26.6 °F 16.2 °F 6.8 °F 43% 29.75 in 10.0 mi WSW 11.5 mph 16.1 mph N/A   Clear
5:15 AM 26.6 °F 16.8 °F 6.8 °F 43% 29.75 in 10.0 mi WSW 10.4 mph - N/A   Clear
5:35 AM 26.6 °F 16.8 °F 6.8 °F 43% 29.75 in 10.0 mi WSW 10.4 mph - N/A   Clear
5:55 AM 26.6 °F 19.1 °F 5.0 °F 40% 29.76 in 10.0 mi WSW 6.9 mph - N/A   Clear
6:15 AM 26.6 °F 17.5 °F 6.8 °F 43% 29.76 in 10.0 mi West 9.2 mph - N/A   Clear
6:35 AM 26.6 °F 15.2 °F 5.0 °F 40% 29.77 in 10.0 mi WSW 13.8 mph - N/A   Clear
6:55 AM 26.6 °F 14.3 °F 5.0 °F 40% 29.77 in 10.0 mi WSW 16.1 mph 20.7 mph N/A   Clear
7:15 AM 26.6 °F 14.3 °F 5.0 °F 40% 29.78 in 10.0 mi WSW 16.1 mph 23.0 mph N/A   Clear
7:35 AM 26.6 °F 14.3 °F 6.8 °F 43% 29.78 in 10.0 mi West 16.1 mph 21.9 mph N/A   Clear
7:55 AM 26.6 °F 13.8 °F 6.8 °F 43% 29.79 in 10.0 mi WSW 17.3 mph - N/A   Clear
8:15 AM 28.4 °F 17.0 °F 6.8 °F 40% 29.79 in 10.0 mi West 15.0 mph 27.6 mph N/A   Clear
8:35 AM 28.4 °F 16.6 °F 6.8 °F 40% 29.79 in 10.0 mi WSW 16.1 mph 23.0 mph N/A   Clear
8:55 AM 28.4 °F 16.6 °F 5.0 °F 37% 29.79 in 10.0 mi WSW 16.1 mph 25.3 mph N/A   Partly Cloudy
9:15 AM 28.4 °F 15.1 °F 6.8 °F 40% 29.79 in 10.0 mi WSW 20.7 mph 31.1 mph N/A   Scattered Clouds
9:35 AM 30.2 °F 19.3 °F 5.0 °F 34% 29.79 in 10.0 mi West 15.0 mph 28.8 mph N/A   Scattered Clouds
9:55 AM 30.2 °F 17.8 °F 5.0 °F 34% 29.79 in 10.0 mi WSW 19.6 mph 28.8 mph N/A   Mostly Cloudy
10:35 AM 30.2 °F 17.1 °F 3.2 °F 32% 29.79 in 10.0 mi WSW 21.9 mph 28.8 mph N/A   Scattered Clouds
10:55 AM 30.2 °F 17.8 °F 3.2 °F 32% 29.79 in 10.0 mi West 19.6 mph 29.9 mph N/A   Mostly Cloudy
11:15 AM 30.2 °F 19.8 °F 5.0 °F 34% 29.79 in 10.0 mi WSW 13.8 mph 25.3 mph N/A   Mostly Cloudy
11:35 AM 32.0 °F 19.5 °F 5.0 °F 32% 29.78 in 10.0 mi WSW 21.9 mph 29.9 mph N/A   Mostly Cloudy
11:55 AM 32.0 °F 20.8 °F 6.8 °F 35% 29.78 in 10.0 mi West 17.3 mph 26.5 mph N/A   Mostly Cloudy
12:15 PM 32.0 °F 19.5 °F 6.8 °F 35% 29.78 in 10.0 mi West 21.9 mph 31.1 mph N/A   Mostly Cloudy
12:35 PM 33.8 °F 21.6 °F 6.8 °F 32% 29.77 in 10.0 mi WSW 23.0 mph 29.9 mph N/A   Overcast
12:55 PM 32.0 °F 22.5 °F 6.8 °F 35% 29.76 in 10.0 mi West 12.7 mph 21.9 mph N/A   Overcast
1:15 PM 33.8 °F 22.2 °F 6.8 °F 32% 29.75 in 10.0 mi WSW 20.7 mph 29.9 mph N/A   Overcast
1:35 PM 35.6 °F 25.9 °F 8.6 °F 33% 29.75 in 10.0 mi West 16.1 mph 29.9 mph N/A   Mostly Cloudy
1:55 PM 33.8 °F 22.2 °F 6.8 °F 32% 29.75 in 10.0 mi WSW 20.7 mph 33.4 mph N/A   Mostly Cloudy
2:15 PM 33.8 °F 23.9 °F 8.6 °F 35% 29.75 in 10.0 mi West 15.0 mph 26.5 mph N/A   Overcast
2:35 PM 35.6 °F 24.8 °F 8.6 °F 33% 29.74 in 10.0 mi West 19.6 mph 28.8 mph N/A   Overcast
2:55 PM 33.8 °F 21.6 °F 8.6 °F 35% 29.73 in 10.0 mi SW 23.0 mph 32.2 mph N/A   Overcast
3:15 PM 33.8 °F 24.8 °F 12.2 °F 41% 29.73 in 10.0 mi West 12.7 mph 28.8 mph N/A   Overcast
3:35 PM 33.8 °F 23.5 °F 10.4 °F 38% 29.73 in 10.0 mi WSW 16.1 mph 25.3 mph N/A   Overcast
3:55 PM 33.8 °F 21.6 °F 14.0 °F 44% 29.72 in 10.0 mi WSW 23.0 mph 33.4 mph N/A   Overcast
4:15 PM 33.8 °F 23.2 °F 12.2 °F 41% 29.73 in 10.0 mi WSW 17.3 mph 34.5 mph N/A   Overcast
4:35 PM 32.0 °F 20.1 °F 14.0 °F 48% 29.74 in 10.0 mi SW 19.6 mph 28.8 mph N/A   Overcast
4:55 PM 33.8 °F 22.8 °F 12.2 °F 41% 29.74 in 10.0 mi WSW 18.4 mph 23.0 mph N/A   Mostly Cloudy
5:15 PM 33.8 °F 21.3 °F 8.6 °F 35% 29.74 in 10.0 mi WSW 24.2 mph 32.2 mph N/A   Mostly Cloudy
5:35 PM 33.8 °F 21.3 °F 6.8 °F 32% 29.76 in 10.0 mi WSW 24.2 mph 34.5 mph N/A   Mostly Cloudy
5:55 PM 33.8 °F 20.8 °F 6.8 °F 32% 29.76 in 10.0 mi WSW 26.5 mph 33.4 mph N/A   Mostly Cloudy
6:15 PM 32.0 °F 20.1 °F 6.8 °F 35% 29.78 in 10.0 mi West 19.6 mph 32.2 mph N/A   Mostly Cloudy
6:35 PM 32.0 °F 21.6 °F 6.8 °F 35% 29.78 in 10.0 mi West 15.0 mph 32.2 mph N/A   Overcast
6:55 PM 30.2 °F 18.9 °F 6.8 °F 37% 29.79 in 10.0 mi West 16.1 mph 33.4 mph N/A   Scattered Clouds
7:15 PM 30.2 °F 18.9 °F 6.8 °F 37% 29.80 in 10.0 mi West 16.1 mph 31.1 mph N/A   Partly Cloudy
7:35 PM 30.2 °F 18.9 °F 6.8 °F 37% 29.80 in 10.0 mi WSW 16.1 mph 26.5 mph N/A   Clear
7:55 PM 30.2 °F 18.9 °F 6.8 °F 37% 29.80 in 10.0 mi WSW 16.1 mph 21.9 mph N/A   Clear
8:15 PM 30.2 °F 18.5 °F 8.6 °F 40% 29.82 in 10.0 mi West 17.3 mph 34.5 mph N/A   Partly Cloudy
8:35 PM 30.2 °F 19.8 °F 8.6 °F 40% 29.82 in 10.0 mi WSW 13.8 mph 24.2 mph N/A   Partly Cloudy
8:55 PM 30.2 °F 18.1 °F 8.6 °F 40% 29.82 in 10.0 mi WSW 18.4 mph - N/A   Clear
9:15 PM 30.2 °F 18.9 °F 8.6 °F 40% 29.83 in 10.0 mi West 16.1 mph 25.3 mph N/A   Partly Cloudy
9:35 PM 30.2 °F 19.8 °F 8.6 °F 40% 29.83 in 10.0 mi West 13.8 mph 23.0 mph N/A   Partly Cloudy
9:55 PM 30.2 °F 19.3 °F 8.6 °F 40% 29.83 in 10.0 mi WSW 15.0 mph - N/A   Scattered Clouds
10:15 PM 30.2 °F 20.2 °F 8.6 °F 40% 29.83 in 10.0 mi West 12.7 mph 24.2 mph N/A   Partly Cloudy
10:35 PM 30.2 °F 18.9 °F 8.6 °F 40% 29.83 in 10.0 mi WSW 16.1 mph 23.0 mph N/A   Clear
10:55 PM 30.2 °F 19.8 °F 10.4 °F 44% 29.82 in 10.0 mi West 13.8 mph 24.2 mph N/A   Clear
11:15 PM 30.2 °F 19.8 °F 8.6 °F 40% 29.83 in 10.0 mi WSW 13.8 mph 26.5 mph N/A   Clear
11:35 PM 30.2 °F 18.1 °F 8.6 °F 40% 29.83 in 10.0 mi WSW 18.4 mph 28.8 mph N/A   Clear
11:55 PM 30.2 °F 18.9 °F 10.4 °F 44% 29.82 in 10.0 mi WSW 16.1 mph 23.0 mph N/A   Clear